Flag for Estonia Weather past 2 weeks in Tartu, Estonia

Now
27 °F

Overcast.


Feels Like: 15 °F
Forecast: 23 / 29 °F
Wind: 15 mph from East

Location: Tartu/Ulenurme

Current Time: Oct 22, 2014 at 8:20:45 AM

Latest Report: Oct 22, 2014 at 7:50 AM


Visibility: N/A

Pressure: 30.01 "Hg

Humidity: 69%

Dew point: 18 °F

Location of TartuLocation

Historic Weather in Tartu — Graph

°F

Tartu temperature yesterday

Maximum temperature yesterday: 46 °F (at 12:50 AM)
Minimum temperature yesterday: 32 °F (at 10:50 PM)
Average temperature yesterday: 37 °F

Past Weeks' High & Low Weather Summary

 TemperatureHumidityPressure
High59 °F (Oct 10, 12:50 PM)100% (Oct 10, 12:50 AM)30.57 "Hg (Oct 10, 12:50 AM)
Low27 °F (Oct 17, 5:50 AM)47% (Oct 7, 2:50 PM)29.30 "Hg (Oct 20, 2:50 PM)
Average45 °F82%29.91 "Hg
* Reported Oct 7 6:50 AM — Oct 22 6:50 AM, Tartu, Weather by CustomWeather, © 2014

Note: Actual official high and low records may vary slightly from our data, if they occured in-between our weather recording intervals... More about our weather records

Advertising

Tartu weather history for previous 24 hours

 ConditionsComfort  
Time TempWeatherWind HumidityBarometerVisibility
6:50 AM
Oct 22
28 °FOvercast.13 mph64%30.01 "HgN/A
5:50 AM28 °FOvercast.13 mph69%29.98 "HgN/A
4:50 AM28 °FPassing clouds.15 mph69%29.95 "HgN/A
3:50 AM28 °FPassing clouds.13 mph69%29.95 "HgN/A
2:50 AM28 °FPassing clouds.14 mph64%29.92 "HgN/A
1:50 AM30 °FChilly.13 mph69%29.89 "HgN/A
12:50 AM30 °FChilly.9 mph75%29.89 "HgN/A
11:50 PM
Oct 21
32 °FOvercast.12 mph69%29.86 "HgN/A
10:50 PM32 °FOvercast.8 mph75%29.86 "HgN/A
9:50 PM34 °FOvercast.14 mph65%29.86 "HgN/A
8:50 PM34 °FOvercast.10 mph65%29.83 "HgN/A
7:50 PM36 °FOvercast.10 mph60%29.80 "HgN/A
6:50 PM36 °FOvercast.12 mph65%29.80 "HgN/A
5:50 PM36 °FOvercast.7 mph70%29.77 "HgN/A
4:50 PM37 °FOvercast.9 mph65%29.77 "HgN/A
3:50 PM37 °FOvercast.7 mph65%29.74 "HgN/A
2:50 PM37 °FOvercast.8 mph65%29.74 "HgN/A
1:50 PM37 °FOvercast.8 mph70%29.74 "HgN/A
12:50 PM37 °FOvercast.9 mph65%29.71 "HgN/A
11:50 AM37 °FOvercast.9 mph70%29.68 "HgN/A
10:50 AM37 °FOvercast.10 mph75%29.68 "HgN/A
9:50 AM37 °FMore clouds than sun.7 mph81%29.65 "HgN/A
8:50 AM37 °FOvercast.8 mph81%29.62 "HgN/A
Weather by CustomWeather, © 2014

See weather overviewHow to use our weather pages